GFSMW_sfc_30mbdewp_114.txt.gz
Dewpoint
33 37 40 41 42 43 44 45 47 47 38 37 51 54 59 61 61 62 62 62 64 65 64 63 64 65 65 64 64 64 64 63 63 62 61 61 61 61 59 59 59 60 60
36 37 38 40 41 42 43 45 45 46 48 42 36 51 54 58 59 61 63 63 64 64 64 63 64 65 64 64 64 63 63 63 63 60 59 57 58 59 60 60 60 61 61
34 35 36 37 38 39 41 42 43 44 45 47 48 38 53 55 57 61 63 64 63 63 65 64 64 64 64 63 63 63 62 60 62 61 57 55 52 52 57 59 59 60 61
31 31 32 34 35 36 38 40 42 43 44 46 47 47 42 51 56 59 62 63 64 64 64 64 64 64 64 63 63 63 62 62 59 61 61 56 54 53 52 57 58 60 60
30 30 30 31 33 35 36 38 40 41 43 46 47 49 45 50 53 57 59 61 63 64 64 64 64 64 63 63 63 62 62 62 60 60 59 59 57 56 55 52 54 57 59
29 29 30 30 31 33 34 35 37 38 40 43 46 49 52 49 52 53 58 60 63 63 64 64 64 64 63 63 63 63 62 62 61 60 59 58 57 57 56 54 53 53 55
28 28 29 29 30 31 32 33 34 36 37 41 44 48 52 53 55 53 57 59 62 62 63 63 63 63 63 63 63 62 62 62 61 61 60 58 57 56 55 55 54 54 54
27 27 28 29 29 30 31 32 33 34 36 40 43 46 51 54 55 56 55 58 61 61 62 63 63 63 63 63 63 62 62 62 62 62 61 59 59 57 56 56 54 54 54
26 26 27 28 28 28 29 31 32 33 35 39 42 46 51 57 57 57 58 59 61 61 63 63 63 63 63 63 63 62 62 62 62 61 62 61 60 59 59 58 56 55 52
25 26 26 27 28 28 29 30 31 32 34 38 42 45 51 57 58 60 61 60 62 62 62 62 62 62 62 63 63 62 62 61 62 61 61 61 60 60 60 59 59 57 56
25 26 27 27 28 28 28 29 30 31 33 38 42 45 50 59 60 61 61 61 62 61 62 63 62 62 62 62 62 62 61 61 61 61 61 60 61 60 60 60 59 58 57
25 26 26 26 27 27 27 28 29 31 32 36 41 42 45 50 61 60 61 62 61 62 62 62 61 61 61 61 61 61 60 60 60 60 60 60 60 60 59 59 58 58 57
24 25 25 25 25 26 26 26 27 30 32 34 37 40 40 42 45 56 59 60 60 60 60 61 61 61 60 60 60 60 60 60 60 59 59 58 57 57 57 58 58 58 57
24 24 24 24 25 26 26 25 26 28 30 32 33 36 36 38 40 42 45 46 50 55 52 50 45 44 43 44 48 54 56 56 56 57 57 56 55 55 56 56 56 56 56
22 23 23 24 25 26 25 25 25 27 29 30 31 32 35 35 35 36 38 39 40 40 40 38 38 37 36 36 39 46 51 52 53 54 54 53 52 50 49 50 55 56 56
21 22 23 24 24 25 26 25 25 26 27 28 29 30 32 32 33 33 34 33 34 34 34 34 33 34 34 35 37 42 48 47 45 44 43 45 47 47 44 45 45 47 54
21 21 23 23 24 26 27 26 26 27 26 26 27 28 30 31 31 32 31 30 31 31 31 31 31 31 32 34 36 39 38 37 36 35 35 38 40 41 41 44 43 40 38
20 20 21 22 23 24 25 24 24 24 25 25 27 28 28 28 30 30 29 30 30 29 29 29 29 29 30 32 34 34 33 32 32 31 31 33 35 36 36 40 38 34 33
20 20 21 21 22 24 24 24 24 23 23 24 25 27 28 28 28 28 29 29 28 28 28 27 28 28 28 30 30 30 30 29 28 28 29 29 31 32 35 37 35 33 33
19 19 19 19 20 22 22 23 23 23 23 24 25 26 27 28 28 28 29 30 30 29 28 27 28 27 27 28 28 28 27 26 25 25 26 27 28 29 31 32 33 31 30
18 18 17 18 19 20 20 20 20 21 22 23 24 25 26 26 27 27 28 28 28 28 29 29 29 29 28 28 27 27 25 25 24 23 24 26 27 27 27 28 28 28 29
17 16 16 17 18 20 20 18 19 19 20 22 23 23 24 25 25 25 26 26 26 26 27 27 26 27 28 27 27 26 25 26 24 23 24 25 25 25 25 25 25 25 25
17 17 16 16 18 19 19 18 19 19 18 20 20 21 22 22 23 23 22 22 23 23 23 24 24 25 25 26 26 26 25 25 26 25 25 25 25 23 23 24 23 23 23
15 15 14 15 16 18 18 18 19 20 18 17 17 18 18 19 19 20 20 19 20 20 20 21 20 22 22 23 24 25 27 25 26 26 26 25 25 26 25 23 23 24 24
13 13 13 12 13 14 15 16 16 16 15 14 15 15 14 15 15 16 14 15 16 17 17 18 19 19 19 21 21 21 21 22 22 25 24 23 23 22 22 22 23 23 23
6 6 7 8 8 9 11 11 11 12 12 11 11 12 12 12 12 12 13 13 12 12 13 14 16 17 16 17 18 17 17 19 20 21 20 20 20 19 19 20 20 20 21

GFSMW_sfc_30mbdewp_117.txt.gz
Dewpoint
32 34 35 37 39 41 41 41 43 45 46 46 37 42 55 58 61 64 63 62 63 66 66 65 65 66 65 65 66 64 64 63 63 62 61 62 62 62 60 59 57 59 59
30 32 33 35 37 38 40 42 42 42 44 44 45 41 42 51 58 60 62 64 64 65 66 65 63 66 65 65 65 64 64 64 64 61 60 58 59 60 60 58 57 58 58
31 31 31 32 34 35 38 39 40 41 43 44 45 45 47 44 53 59 60 62 64 65 66 66 64 64 65 64 64 64 63 62 64 63 58 55 51 52 58 59 59 59 61
30 30 31 31 32 33 36 37 38 40 41 43 44 45 45 43 45 56 60 60 64 64 66 66 66 65 65 64 63 64 63 62 61 63 62 58 52 49 50 57 58 59 60
29 29 30 30 31 31 33 35 37 38 40 42 43 45 46 47 48 47 57 60 62 64 65 66 66 65 65 64 63 63 63 63 61 61 61 61 59 57 54 52 55 56 58
28 28 28 29 29 31 31 33 35 36 38 39 41 43 45 47 48 50 51 58 60 62 65 65 65 65 65 64 64 64 63 63 62 61 60 59 58 56 56 55 54 55 56
27 27 27 28 28 29 30 31 32 33 35 37 39 40 43 46 48 50 52 56 59 61 63 64 64 64 65 64 64 63 63 63 62 61 60 60 59 58 56 55 55 53 53
27 27 27 27 27 28 29 29 30 31 33 34 36 38 41 44 47 49 52 54 57 60 63 64 63 64 64 64 64 63 63 63 62 61 61 61 60 59 57 55 54 54 54
27 26 26 26 26 28 28 29 29 30 31 33 35 37 40 43 46 50 54 55 57 59 62 63 63 63 63 63 63 62 62 62 63 62 62 62 61 61 60 58 56 55 53
26 26 26 26 27 29 29 28 28 29 30 32 34 37 40 44 47 52 55 57 58 59 61 63 63 63 63 63 63 62 62 62 62 62 62 62 62 61 61 59 59 58 57
25 28 28 27 28 28 28 27 28 28 30 32 35 37 42 45 48 55 58 59 58 58 60 62 62 62 62 63 62 62 62 61 61 62 62 62 62 61 61 60 60 59 58
24 27 28 28 28 28 28 28 28 28 30 32 34 39 40 43 46 52 57 58 58 58 59 60 61 62 62 62 62 61 61 61 59 61 61 61 61 61 61 61 60 59 59
24 24 26 27 28 28 28 27 28 28 30 32 33 36 37 39 39 42 45 48 57 57 55 58 56 58 60 61 61 61 60 60 61 61 60 60 60 60 59 59 58 58 58
24 24 25 27 28 29 28 28 27 28 29 31 31 33 34 35 36 37 38 40 42 42 42 41 40 40 40 44 50 59 59 59 59 59 59 59 58 56 53 55 56 56 57
23 24 25 26 27 28 29 30 28 28 29 29 30 31 32 33 33 33 33 35 35 36 37 38 38 38 38 38 42 51 53 54 54 50 49 47 46 44 44 46 48 49 51
22 23 24 24 25 27 29 30 29 28 29 29 29 30 31 30 31 31 30 31 31 32 32 33 33 35 35 37 39 45 44 43 41 41 41 42 43 41 43 42 42 41 43
21 20 22 23 24 26 27 28 29 29 28 28 29 29 29 29 30 30 29 29 29 29 30 30 30 30 31 33 34 35 35 34 32 33 35 36 36 36 37 41 43 39 35
20 20 21 21 23 23 24 24 24 25 25 26 27 29 29 29 30 29 29 29 29 28 28 28 28 28 29 31 32 32 32 31 29 29 30 31 32 32 34 39 39 36 34
19 19 19 19 20 21 21 22 23 23 24 25 26 27 28 28 28 29 29 30 30 29 28 28 28 27 28 29 29 29 29 28 27 28 29 28 29 30 32 36 36 33 31
18 18 18 18 19 21 18 21 21 22 23 25 25 26 26 27 27 28 29 30 30 30 30 28 29 28 28 29 28 27 26 25 25 26 26 28 28 28 29 29 30 29 29
17 18 18 18 20 21 21 20 19 20 23 23 24 24 25 25 25 26 26 27 27 27 28 28 27 27 28 29 29 28 28 26 25 24 24 26 27 27 27 27 27 26 28
17 17 17 19 20 20 20 20 20 21 22 22 22 23 22 24 23 22 23 24 23 24 24 25 25 25 26 25 26 27 27 28 26 26 27 27 27 26 26 26 26 25 25
18 17 18 18 19 20 20 18 20 21 20 21 21 21 23 20 21 21 19 19 21 20 21 21 22 23 23 23 23 24 25 26 27 28 27 26 26 26 26 26 25 26 24
15 14 13 15 17 18 18 19 18 20 20 19 20 21 20 22 20 18 18 16 16 17 18 19 17 19 20 21 22 22 24 25 26 28 28 26 26 26 26 25 26 27 26
13 11 11 10 10 13 14 16 17 17 18 18 19 19 17 19 19 18 16 15 15 14 15 16 18 16 16 17 18 19 19 23 25 25 24 23 23 23 23 23 23 23 24
3 3 4 4 4 8 10 10 11 13 13 13 14 15 15 15 15 15 16 16 15 14 12 11 13 15 13 14 15 15 16 16 19 20 20 20 20 20 20 21 21 21 21

GFSMW_sfc_30mbdewp_120.txt.gz
Dewpoint
31 32 34 34 35 37 39 40 42 44 45 45 47 47 45 47 62 64 64 64 65 67 66 66 66 66 64 65 65 65 64 64 64 63 61 63 63 63 62 62 61 61 61
30 31 32 33 35 35 36 37 39 41 42 43 45 46 48 48 50 60 63 64 65 65 67 66 65 66 64 64 66 65 64 64 64 62 60 59 61 62 62 61 61 61 61
30 30 30 32 33 33 34 35 37 39 40 42 43 44 45 46 46 47 53 63 64 64 66 66 65 65 65 64 65 65 64 62 64 63 59 57 55 58 60 61 61 60 60
29 29 29 30 31 31 33 34 35 36 37 40 41 43 44 46 48 49 50 59 63 63 64 66 66 65 66 65 65 64 63 63 62 63 62 59 57 52 55 59 60 60 60
29 28 28 28 29 30 31 32 33 33 34 37 39 40 42 44 47 48 49 51 56 62 63 64 65 66 65 66 65 64 63 63 61 62 61 61 60 59 56 54 58 60 60
28 28 27 28 28 28 29 30 30 31 32 34 36 38 39 40 43 46 48 50 54 58 61 62 64 65 65 63 65 64 63 63 62 61 61 60 60 58 57 56 56 56 58
27 27 27 27 27 27 27 28 29 29 30 31 33 35 36 38 40 42 45 48 51 54 58 61 62 64 65 64 65 64 63 63 62 61 61 60 60 60 59 57 56 55 57
26 27 27 26 27 27 27 28 28 29 29 30 32 33 35 36 38 40 43 47 50 52 57 59 60 62 64 64 65 64 64 63 62 61 61 61 60 60 59 57 56 54 55
26 26 26 27 27 27 27 28 29 28 29 30 31 33 34 36 38 40 43 46 48 52 54 59 59 60 64 64 64 63 63 63 62 61 61 61 61 61 60 60 58 56 53
26 27 28 28 28 29 29 30 29 29 30 30 32 33 36 37 39 41 43 45 47 52 55 57 59 59 62 63 63 63 63 62 61 61 61 61 61 61 61 61 59 58 56
27 28 29 29 30 30 31 30 29 29 29 30 33 34 37 39 42 44 46 46 49 51 56 56 57 51 60 61 61 63 62 62 61 61 61 61 61 62 62 61 60 59 58
27 29 29 29 30 30 31 30 30 29 30 31 32 34 36 37 38 40 43 49 51 53 58 57 58 55 60 61 62 61 62 61 61 61 61 60 61 61 61 61 60 59 59
27 27 28 28 28 29 30 30 30 29 30 31 32 32 33 34 35 35 38 39 40 43 44 44 47 49 51 61 62 62 61 61 61 61 61 60 61 61 61 60 60 60 59
26 25 26 27 28 29 30 30 29 30 30 30 30 30 31 32 33 34 33 34 35 35 38 40 40 41 42 44 49 61 61 61 61 60 58 55 56 56 56 55 54 54 54
23 24 25 26 26 27 29 31 29 29 30 29 29 30 31 31 31 31 32 32 32 32 33 33 36 37 38 40 44 45 45 47 46 46 45 42 43 43 43 48 48 48 49
23 23 23 22 24 25 27 28 29 28 29 28 29 30 30 30 30 29 29 30 30 31 31 31 31 32 34 36 37 37 35 35 35 36 39 39 36 38 40 42 40 40 42
19 19 20 20 22 21 23 23 24 26 26 28 28 29 29 29 30 30 29 29 29 29 29 29 29 29 30 32 33 33 33 32 31 31 31 32 32 33 37 40 37 36 35
18 18 19 19 20 20 20 21 21 23 24 25 26 26 28 28 29 29 29 29 29 28 27 27 28 28 29 30 30 30 30 28 28 30 30 30 30 31 34 39 35 33 32
19 19 19 18 20 21 20 20 21 21 22 22 23 24 24 25 26 27 28 29 29 28 27 27 26 27 28 30 30 28 27 27 26 26 28 28 28 30 31 32 32 31 29
19 19 20 20 21 22 21 20 20 22 22 23 21 22 23 21 23 25 25 26 27 28 27 26 26 26 26 30 30 29 28 26 26 26 27 28 28 28 28 27 27 26 27
19 19 20 20 21 21 20 20 20 21 23 22 24 20 21 21 19 21 22 23 23 22 24 24 24 24 24 25 27 28 28 27 26 26 27 28 29 29 28 27 26 25 26
19 19 19 19 20 20 19 19 20 21 22 22 21 23 21 20 19 17 18 19 20 21 19 19 20 20 22 22 22 25 26 28 27 27 28 29 29 27 27 28 28 28 26
18 19 18 18 19 19 19 18 18 22 20 21 21 21 23 21 20 17 15 15 16 16 18 17 16 17 18 20 20 20 23 26 27 27 26 26 26 27 26 25 25 27 27
14 14 14 15 15 18 17 18 19 19 21 19 21 21 20 21 19 19 17 15 14 14 14 15 15 15 15 17 19 20 20 23 25 25 24 24 23 23 23 24 23 23 24
13 11 10 9 12 14 14 15 17 18 18 19 18 20 19 19 21 20 18 17 16 14 13 14 15 14 14 15 17 17 17 19 22 22 20 19 19 19 19 20 21 21 21
3 4 4 5 7 10 12 13 14 15 15 17 17 17 18 18 18 18 19 19 19 15 13 12 13 15 13 13 14 15 15 14 15 17 16 16 16 16 16 17 18 18 19

GFSMW_sfc_30mbdewp_123.txt.gz
Dewpoint
31 32 33 33 33 33 34 35 35 37 39 40 41 42 43 45 46 50 52 64 63 64 66 65 66 65 64 65 65 64 64 64 64 62 62 62 63 63 63 62 61 61 62
30 30 30 31 31 32 32 33 33 34 35 37 39 40 41 43 45 47 50 51 57 65 65 64 63 66 64 63 65 64 64 64 64 61 60 59 61 62 62 62 62 61 61
29 29 29 29 29 29 30 31 31 32 33 34 35 38 40 41 43 45 48 50 53 60 64 63 63 64 66 63 63 65 63 62 64 62 59 57 55 59 62 62 61 61 61
28 28 27 27 28 28 28 29 29 30 30 32 32 33 35 38 40 42 45 47 50 53 57 63 63 62 64 65 62 65 64 63 61 62 60 58 57 54 55 60 61 60 60
27 27 27 27 27 27 27 28 28 29 29 29 30 31 32 36 38 39 41 43 46 50 53 58 62 64 64 65 64 62 65 63 62 62 61 59 58 57 55 56 58 60 60
27 27 27 27 26 26 26 27 27 28 28 29 29 30 31 32 34 36 38 40 43 46 50 54 59 61 64 63 64 64 64 64 63 62 61 61 58 57 57 55 57 58 59
26 26 26 26 26 26 26 27 27 27 28 28 28 29 30 31 33 34 36 38 41 44 47 52 54 60 61 63 64 64 63 63 62 62 62 62 61 59 58 57 55 56 57
26 27 27 27 27 27 28 28 29 28 28 28 29 29 30 32 33 34 36 37 39 42 45 48 52 57 60 61 62 62 62 60 60 61 61 60 61 61 60 58 56 54 55
27 28 27 27 28 28 29 30 30 29 29 29 31 31 32 33 34 35 36 37 39 41 43 46 49 54 57 60 59 60 60 61 59 59 61 61 60 60 60 60 58 55 52
27 27 27 27 28 29 30 32 30 29 29 30 32 33 34 36 37 38 38 39 41 42 43 45 47 51 55 58 59 59 59 59 62 61 61 61 60 60 60 60 59 58 54
27 27 27 28 28 30 30 31 30 29 29 31 32 33 34 35 36 37 39 41 43 44 45 46 48 51 55 58 58 59 58 59 61 62 61 60 60 59 61 61 60 58 57
26 27 27 27 27 29 29 30 29 29 30 31 32 32 32 33 34 34 36 38 40 45 48 49 50 53 53 54 55 55 54 49 58 61 61 60 60 60 61 61 60 59 59
24 25 26 25 26 28 28 30 29 29 30 31 31 31 31 31 32 33 33 34 35 36 39 40 40 40 42 44 48 51 51 59 60 61 61 60 60 60 60 60 59 59 59
24 24 24 24 25 27 27 29 28 29 29 29 30 30 30 31 31 31 31 32 32 32 32 34 34 34 35 38 43 51 58 58 58 55 55 51 53 57 59 60 59 57 57
22 23 23 23 24 24 24 26 26 27 28 28 28 29 30 31 31 30 30 29 30 31 30 30 31 32 33 33 36 39 40 41 42 41 38 38 39 41 43 49 50 52 52
19 20 20 19 20 20 20 21 22 25 25 26 26 27 28 29 30 30 29 28 28 29 30 29 29 30 31 32 32 32 32 33 34 34 34 35 35 39 37 37 36 37 45
18 18 18 19 20 21 20 20 21 22 21 22 23 23 26 26 28 29 29 27 27 27 26 28 28 29 30 31 31 31 30 30 29 30 31 32 33 36 38 36 34 33 34
18 18 19 19 20 21 21 20 21 21 21 18 21 20 21 22 24 25 26 28 26 25 25 25 26 27 29 31 30 30 29 28 28 28 28 29 29 31 35 33 31 30 31
19 19 20 20 20 21 21 20 21 21 21 19 18 19 17 20 21 22 23 23 24 23 22 23 23 23 27 29 30 29 28 28 27 28 30 28 28 29 30 29 29 27 27
19 19 20 20 20 20 20 20 19 21 21 23 20 19 17 16 17 19 20 22 20 20 20 19 20 22 23 27 29 28 27 26 27 28 29 30 29 30 29 26 25 24 24
17 19 19 18 19 19 18 18 19 19 21 21 23 20 20 17 16 16 17 18 19 17 17 17 18 19 22 22 25 27 27 27 26 26 26 29 27 27 27 28 27 26 26
16 17 16 17 17 17 18 16 17 19 19 21 21 20 20 19 17 16 15 15 15 15 15 15 15 17 19 21 20 22 25 26 24 25 25 25 24 24 23 24 25 26 27
18 16 14 15 17 15 16 16 17 19 17 19 19 20 18 19 18 16 15 14 14 14 14 14 14 15 16 19 20 18 21 24 22 22 22 21 20 21 22 21 21 23 23
16 17 13 13 13 14 14 16 17 18 19 17 19 19 20 18 18 17 16 16 14 13 14 14 14 14 15 16 19 19 19 19 20 20 19 19 19 19 19 19 19 20 21
12 11 12 12 13 14 15 16 17 18 18 19 18 19 19 19 19 20 18 17 17 14 13 14 16 16 14 14 17 16 16 17 17 16 16 15 16 15 15 17 17 18 18
8 7 8 10 11 12 14 16 17 16 17 18 18 17 18 18 18 17 16 21 19 18 14 11 14 16 13 12 12 13 13 13 14 13 12 12 13 14 14 14 15 16 16

GFSMW_sfc_30mbdewp_129.txt.gz
Dewpoint
27 28 27 27 27 26 26 27 27 27 28 30 29 29 30 31 36 35 38 44 47 50 51 55 55 55 60 60 64 64 64 64 64 62 61 62 62 62 62 62 62 62 62
27 26 26 26 26 26 26 27 27 27 28 28 28 29 29 30 32 35 38 39 43 44 43 46 50 53 57 61 60 63 62 62 64 60 60 58 60 61 62 62 62 62 62
25 26 25 25 26 26 27 27 28 28 28 28 28 28 28 29 30 30 31 34 36 39 43 45 46 50 54 59 58 60 62 60 62 63 57 56 56 58 61 62 62 62 62
26 26 25 25 26 27 28 28 28 28 28 29 28 27 27 27 28 29 30 31 34 37 39 41 42 46 50 53 59 59 58 60 59 61 62 58 57 55 55 60 61 62 61
26 26 26 26 27 27 28 27 28 28 28 28 28 28 28 28 29 29 29 31 32 34 36 40 43 45 48 51 55 59 57 58 59 60 59 59 58 58 56 54 59 61 61
26 26 26 26 26 27 26 26 29 27 27 27 27 27 27 28 29 30 30 31 32 34 35 37 39 43 48 51 55 56 59 59 60 60 59 57 56 56 56 55 56 58 59
25 26 26 25 25 26 26 28 28 26 26 26 27 27 28 30 32 32 32 33 34 35 35 37 39 40 42 45 46 48 54 59 61 60 59 58 58 58 57 56 54 55 58
25 25 25 24 25 25 26 28 27 27 27 28 29 29 30 32 33 34 35 35 35 36 37 38 38 39 41 42 44 47 48 53 60 60 61 60 61 60 60 58 57 54 54
24 25 24 24 25 26 26 28 27 27 28 29 30 30 32 33 33 35 35 35 37 39 40 40 40 40 41 42 45 46 47 52 58 59 60 60 60 60 58 55 55 55 51
23 24 24 25 25 26 25 27 27 27 28 28 27 29 31 33 33 33 33 34 36 37 38 40 40 42 42 43 44 45 47 49 53 58 59 58 59 58 57 57 56 57 57
23 24 24 24 24 25 25 26 26 26 25 27 27 28 29 31 32 32 32 33 34 34 35 36 38 43 45 46 47 47 47 49 53 57 58 57 56 56 56 55 55 57 58
23 23 23 22 23 24 24 25 25 24 25 26 26 27 28 31 29 30 30 32 32 33 33 34 34 35 37 41 45 48 50 52 54 56 56 56 56 54 54 55 56 55 56
23 22 21 21 22 22 22 23 23 23 24 25 25 25 25 28 28 27 28 28 29 30 31 31 32 32 33 35 39 42 45 42 42 43 45 45 52 55 55 56 56 56 56
21 20 19 21 21 22 22 22 22 22 21 23 23 22 23 25 27 26 26 26 27 27 29 29 30 31 31 33 34 35 36 36 37 38 38 37 37 40 43 50 57 55 55
19 18 18 19 21 21 21 21 21 21 20 20 19 21 22 24 23 24 23 23 24 25 26 28 29 29 30 30 31 32 32 32 33 34 35 37 36 35 36 39 37 43 54
17 16 17 17 18 20 20 21 21 21 20 19 17 18 18 19 21 20 21 21 21 22 24 25 27 28 29 31 30 29 29 29 29 30 31 32 33 34 33 33 33 32 41
16 16 17 18 19 20 20 20 21 21 19 18 17 17 16 16 17 18 18 18 19 20 22 23 26 26 28 30 30 29 27 26 26 27 27 28 30 32 32 31 30 31 31
15 16 18 19 20 20 20 20 20 19 18 18 17 17 16 15 15 16 17 17 18 19 20 21 22 24 25 27 28 28 26 25 26 26 26 26 27 29 30 28 27 27 28
18 19 20 19 19 19 20 20 20 18 18 17 17 17 17 16 15 15 16 17 17 17 19 20 21 20 21 23 24 24 23 23 23 24 26 26 26 28 28 26 26 25 26
19 18 18 18 17 18 19 18 18 18 17 18 18 18 17 17 16 15 16 17 17 16 17 18 20 19 19 19 19 21 21 21 20 21 23 24 24 24 25 23 23 23 24
17 17 16 15 16 16 17 17 16 17 18 17 17 17 17 17 16 15 16 16 16 16 16 15 17 18 17 18 17 18 19 19 18 17 18 21 21 21 21 22 22 22 23
15 14 14 14 15 16 16 16 16 16 17 17 17 16 16 17 16 16 14 15 15 16 15 14 13 15 17 15 16 15 14 16 16 16 16 16 16 17 17 18 18 19 20
15 14 13 14 14 16 16 17 17 17 17 17 17 16 16 17 16 16 14 13 15 14 15 14 13 12 14 15 14 14 13 12 12 12 12 12 12 12 13 14 14 14 16
14 13 14 14 15 15 16 17 18 17 16 16 17 17 16 15 17 17 15 13 13 15 12 14 12 11 11 12 13 13 13 12 10 9 8 9 9 8 9 10 11 10 11
15 15 15 15 15 16 16 16 18 18 16 15 15 15 16 14 13 15 14 13 13 13 13 12 14 11 10 10 9 9 9 10 9 6 5 5 5 5 5 6 7 7 6
15 14 14 14 15 15 16 16 16 17 15 14 14 14 14 13 13 11 11 12 11 10 11 10 11 11 9 8 7 7 6 6 5 3 2 2 3 4 4 3 4 3 4

GFSMW_sfc_30mbdewp_132.txt.gz
Dewpoint
27 26 26 25 26 26 27 28 28 29 28 28 28 28 28 29 31 32 35 38 36 44 44 44 46 48 51 54 59 58 60 60 62 60 61 62 62 62 62 62 62 62 62
26 26 25 26 26 27 28 28 28 29 28 29 29 28 28 29 29 31 32 32 36 35 36 39 44 47 48 52 55 59 57 56 58 60 58 56 59 60 62 62 62 62 62
25 26 25 26 26 27 28 28 27 28 28 29 28 28 29 29 29 29 29 30 31 33 36 39 42 43 46 48 52 57 58 55 57 58 58 54 53 58 61 61 62 62 62
26 26 26 26 26 27 27 27 27 28 28 28 28 27 27 27 28 30 30 31 32 33 34 36 37 39 41 44 47 51 59 59 55 58 62 61 59 53 54 60 61 62 61
26 25 26 26 26 26 26 27 28 27 26 26 27 27 27 27 28 29 30 31 32 33 34 36 37 39 42 44 46 50 52 58 57 56 56 57 57 59 56 52 58 61 61
25 25 26 25 25 25 25 26 28 26 27 27 27 26 27 27 27 28 29 33 34 35 35 36 37 37 39 41 45 50 53 55 57 56 55 55 55 54 56 54 54 57 59
24 25 24 24 24 25 26 25 26 26 26 26 28 28 29 30 30 30 32 33 34 35 36 37 37 38 37 40 41 43 45 48 57 56 55 56 57 58 57 56 54 53 57
24 24 24 24 24 25 25 24 25 25 25 25 26 27 29 30 32 32 33 34 34 35 37 38 39 39 39 38 40 42 43 45 47 52 57 56 56 59 58 58 56 55 55
23 24 24 24 24 24 24 25 25 24 25 25 26 26 27 31 31 32 34 34 35 35 36 38 39 41 42 41 41 42 42 46 49 52 54 57 59 59 59 58 57 55 50
23 23 23 23 23 24 24 24 25 25 25 25 25 26 26 31 31 31 30 32 34 34 35 36 37 39 43 42 42 42 44 45 46 48 48 55 58 60 60 59 58 57 54
22 22 22 21 22 23 23 24 24 24 23 24 25 26 26 28 29 28 29 30 32 33 33 33 34 35 37 41 44 44 46 46 47 49 52 52 55 58 58 58 57 56 55
22 21 20 20 20 21 22 23 23 21 22 23 24 24 25 26 26 26 26 29 29 32 32 32 32 32 34 36 38 41 46 48 49 48 51 52 55 56 57 56 56 56 56
21 19 18 19 20 22 22 23 22 21 21 22 22 22 22 24 23 24 25 26 27 29 31 30 30 30 31 32 34 35 37 37 38 38 38 38 42 51 53 54 55 55 56
19 18 17 19 21 22 22 22 22 21 20 19 19 19 20 21 22 23 23 24 26 26 28 29 30 29 29 29 30 30 31 32 33 34 35 35 34 35 39 46 46 54 55
17 17 17 19 20 20 21 21 21 20 20 18 17 17 18 19 20 20 21 22 23 25 26 26 27 28 29 29 28 28 27 28 28 30 31 32 35 33 33 33 33 37 44
16 16 17 17 18 19 20 20 20 20 19 18 17 17 16 16 17 18 19 20 21 22 22 23 24 26 28 28 27 26 25 26 25 26 27 28 30 31 30 30 31 31 31
15 16 17 18 19 20 20 20 19 19 18 18 17 17 16 16 16 17 18 18 19 20 20 20 21 22 25 25 25 24 24 23 24 24 25 25 27 28 28 27 27 28 29
15 16 18 18 19 20 20 19 17 17 17 17 17 17 17 15 16 16 17 17 18 18 19 19 19 19 20 20 22 21 21 21 22 24 24 24 25 26 26 26 25 25 27
17 18 19 19 19 19 20 19 17 16 16 16 16 16 16 16 15 15 16 17 16 16 17 17 17 17 18 17 18 19 19 18 18 20 23 23 23 25 24 23 22 22 23
18 18 18 18 18 18 18 17 17 17 16 16 16 16 16 16 15 16 16 17 16 15 15 15 16 16 16 15 15 16 16 16 16 17 18 20 21 21 20 20 20 18 20
17 17 16 16 16 16 17 17 16 16 16 17 16 16 17 16 15 15 16 16 16 14 13 13 14 14 15 15 14 13 14 14 13 14 14 16 16 17 17 17 17 17 18
16 15 15 15 15 16 16 16 16 15 15 16 16 15 16 16 15 14 14 15 14 14 12 12 12 13 13 12 13 12 11 11 11 11 11 11 11 12 12 12 13 13 14
14 14 14 15 15 16 16 16 16 15 16 15 15 14 14 15 14 13 13 14 12 12 13 11 11 11 12 12 10 11 9 8 8 8 8 7 6 7 7 7 7 8 9
14 14 14 15 15 15 17 17 16 15 14 14 14 14 14 13 14 13 13 13 13 11 10 12 11 10 10 10 11 10 10 7 5 5 4 6 6 3 4 3 3 4 5
15 15 15 15 15 17 17 17 17 16 14 14 14 13 13 11 10 12 12 12 13 12 11 9 11 10 9 8 8 8 7 6 4 2 1 1 2 1 0 -0 -1 -1 1
15 15 15 15 15 16 16 16 17 15 15 14 13 12 12 11 10 8 8 12 11 10 10 10 9 9 8 7 6 5 5 3 2 -0 -1 -1 0 0 -1 -2 -2 -3 -3